Satellite: DTUSAT-2
Catalog number: 40030
Epoch time: 14360.49799945
Element set: 546
Inclination: 097.9669 deg
RA of node: 255.3213 deg
Eccentricity: 0.0013327
Arg of perigee: 028.4257 deg
Mean anomaly: 331.7654 deg
Mean motion: 14.85856921 rev/day
Decay rate: 5.528e-05 rev/day^2
Epoch rev: 2813
Checksum: 326
Satellite: ANTELSAT
Catalog number: 40034
Epoch time: 14360.36158290
Element set: 561
Inclination: 097.9625 deg
RA of node: 251.0795 deg
Eccentricity: 0.0060660
Arg of perigee: 314.1768 deg
Mean anomaly: 045.4435 deg
Mean motion: 14.72009331 rev/day
Decay rate: 5.022e-05 rev/day^2
Epoch rev: 2786
Checksum: 281
/EX
SB KEPS @ AMSAT $ORB14360.W
Orbital Elements 14360.WEATHER
HR AMSAT ORBITAL ELEMENTS FOR WEATHER SATELLITES
FROM WA5QGD FORT WORTH,TX December 26, 2014
BID: ORB14360.W
TO ALL RADIO AMATEURS BT
Satellite: MET-2/21
Catalog number: 22782
Epoch time: 14360.19382669
Element set: 258
Inclination: 082.5486 deg
RA of node: 020.9500 deg
Eccentricity: 0.0023634
Arg of perigee: 087.6182 deg
Mean anomaly: 343.2000 deg
Mean motion: 13.83755018 rev/day
Decay rate: 7.4e-07 rev/day^2
Epoch rev: 7667
Checksum: 299
Satellite: OKEAN-4
Catalog number: 23317
Epoch time: 14360.30694635
Element set: 743
Inclination: 082.5382 deg
RA of node: 247.7387 deg
Eccentricity: 0.0020229
Arg of perigee: 178.1246 deg
Mean anomaly: 335.1213 deg
Mean motion: 14.86158813 rev/day
Decay rate: 2.254e-05 rev/day^2
Epoch rev: 9163
Checksum: 298
Satellite: NOAA-14
Catalog number: 23455
Epoch time: 14360.18811772
Element set: 30
Inclination: 098.7659 deg
RA of node: 080.1084 deg
Eccentricity: 0.0009256
Arg of perigee: 206.8685 deg
Mean anomaly: 205.0515 deg
Mean motion: 14.14013310 rev/day
Decay rate: 3.0e-08 rev/day^2
Epoch rev: 3108
Checksum: 261
Satellite: NOAA-15
Catalog number: 25338
Epoch time: 14360.17420403
Element set: 467
Inclination: 098.7647 deg
RA of node: 353.7854 deg
Eccentricity: 0.0009730
Arg of perigee: 314.3511 deg
Mean anomaly: 183.1241 deg
Mean motion: 14.25537968 rev/day
Decay rate: 2.56e-06 rev/day^2
Epoch rev: 86419
Checksum: 313
Satellite: RESURS
Catalog number: 25394
Epoch time: 14359.85001219
Element set: 839
Inclination: 098.4416 deg
RA of node: 316.4167 deg
Eccentricity: 0.0002415
Arg of perigee: 079.3947 deg
Mean anomaly: 332.7000 deg
Mean motion: 14.24430288 rev/day
Decay rate: 1.00e-06 rev/day^2
Epoch rev: 85560
Checksum: 287
Satellite: FENGYUN1
Catalog number: 25730
Epoch time: 14359.84487615
Element set: 327
Inclination: 098.9303 deg
RA of node: 319.9789 deg
Eccentricity: 0.0020560
Arg of perigee: 291.6316 deg
Mean anomaly: 126.6507 deg
Mean motion: 14.12762875 rev/day
Decay rate: 4.142e-05 rev/day^2
Epoch rev: 80457
Checksum: 327
Satellite: OKEAN-0
Catalog number: 25860
Epoch time: 14359.89378196
Element set: 450
Inclination: 098.0707 deg
RA of node: 322.9480 deg
Eccentricity: 0.0001826
Arg of perigee: 116.2748 deg
Mean anomaly: 302.7967 deg
Mean motion: 14.75694543 rev/day
Decay rate: 1.141e-05 rev/day^2
Epoch rev: 83042
Checksum: 323
Satellite: NOAA-16
Catalog number: 26536
Epoch time: 14360.46838950
Element set: 967
Inclination: 098.9664 deg
RA of node: 061.4255 deg
Eccentricity: 0.0010264
Arg of perigee: 006.4786 deg
Mean anomaly: 353.6517 deg
Mean motion: 14.13067197 rev/day
Decay rate: -5.3e-07 rev/day^2
Epoch rev: 73526
Checksum: 329
Satellite: NOAA-17
Catalog number: 27453
Epoch time: 14360.54270655
Element set: 858
Inclination: 098.3259 deg
RA of node: 350.2363 deg
Eccentricity: 0.0010972
Arg of perigee: 334.6569 deg
Mean anomaly: 025.4072 deg
Mean motion: 14.24837205 rev/day
Decay rate: 1.45e-06 rev/day^2
Epoch rev: 65007
Checksum: 305
Satellite: NOAA-18
Catalog number: 28654
Epoch time: 14360.55825824
Element set: 380
Inclination: 099.1697 deg
RA of node: 344.1339 deg
Eccentricity: 0.0015239
Arg of perigee: 085.6504 deg
Mean anomaly: 021.3563 deg
Mean motion: 14.12126288 rev/day
Decay rate: 9.4e-07 rev/day^2
Epoch rev: 49471
Checksum: 318
Satellite: NOAA-19
Catalog number: 33591
Epoch time: 14360.54688284
Element set: 511
Inclination: 098.9692 deg
RA of node: 305.2229 deg
Eccentricity: 0.0013097
Arg of perigee: 298.8458 deg
Mean anomaly: 113.4529 deg
Mean motion: 14.11841272 rev/day
Decay rate: 3.74e-06 rev/day^2
Epoch rev: 30313
Checksum: 317
/EX
SB KEPS @ AMSAT $ORB14360.M
Orbital Elements 14360.MISC
HR AMSAT ORBITAL ELEMENTS FOR MANNED AND MISCELLANEOUS SATELLITES
FROM WA5QGD FORT WORTH,TX December 26, 2014
BID: ORB14360.M
TO ALL RADIO AMATEURS BT
Satellite: HUBBLE
Catalog number: 20580
Epoch time: 14360.07223626
Element set: 187
Inclination: 028.4688 deg
RA of node: 214.9356 deg
Eccentricity: 0.0002852
Arg of perigee: 174.7982 deg
Mean anomaly: 319.6411 deg
Mean motion: 15.06520453 rev/day
Decay rate: 3.767e-05 rev/day^2
Epoch rev: 15367
Checksum: 303
Satellite: ISS
Catalog number: 25544
Epoch time: 14360.58758971
Element set: 633
Inclination: 051.6466 deg
RA of node: 225.3451 deg
Eccentricity: 0.0007282
Arg of perigee: 176.5379 deg
Mean anomaly: 270.3998 deg
Mean motion: 15.52752396 rev/day
Decay rate: 1.8339e-04 rev/day^2
Epoch rev: 92118
Checksum: 338
Satellite: CO-58
Catalog number: 28895
Epoch time: 14359.76634866
Element set: 953
Inclination: 097.8220 deg
RA of node: 191.6137 deg
Eccentricity: 0.0018359
Arg of perigee: 123.4909 deg
Mean anomaly: 236.8051 deg
Mean motion: 14.62367039 rev/day
Decay rate: 1.682e-05 rev/day^2
Epoch rev: 48824
Checksum: 358
Satellite: FALCON
Catalog number: 30776
Epoch time: 14360.18136087
Element set: 35
Inclination: 035.4294 deg
RA of node: 002.3599 deg
Eccentricity: 0.0004190
Arg of perigee: 208.6420 deg
Mean anomaly: 198.7249 deg
Mean motion: 15.20220961 rev/day
Decay rate: 1.6093e-04 rev/day^2
Epoch rev: 42992
Checksum: 290
Satellite: MAST
Catalog number: 31126
Epoch time: 14359.87362144
Element set: 236
Inclination: 097.9385 deg
RA of node: 331.0524 deg
Eccentricity: 0.0092895
Arg of perigee: 116.2334 deg
Mean anomaly: 300.0703 deg
Mean motion: 14.55689118 rev/day
Decay rate: 1.006e-05 rev/day^2
Epoch rev: 40827
Checksum: 290
Satellite: CAPE1
Catalog number: 31130
Epoch time: 14359.84751183
Element set: 241
Inclination: 097.9603 deg
RA of node: 327.9416 deg
Eccentricity: 0.0099133
Arg of perigee: 134.9876 deg
Mean anomaly: 225.9411 deg
Mean motion: 14.55001050 rev/day
Decay rate: 1.510e-05 rev/day^2
Epoch rev: 40767
Checksum: 288
Satellite: COMPASS
Catalog number: 32787
Epoch time: 14359.68901803
Element set: 135
Inclination: 097.6766 deg
RA of node: 047.6128 deg
Eccentricity: 0.0011913
Arg of perigee: 267.6655 deg
Mean anomaly: 092.3199 deg
Mean motion: 14.89390983 rev/day
Decay rate: 5.711e-05 rev/day^2
Epoch rev: 36067
Checksum: 345
Satellite: AAUSAT2
Catalog number: 32788
Epoch time: 14360.13139673
Element set: 122
Inclination: 097.6775 deg
RA of node: 049.2804 deg
Eccentricity: 0.0011620
Arg of perigee: 263.4952 deg
Mean anomaly: 096.4943 deg
Mean motion: 14.90276430 rev/day
Decay rate: 6.610e-05 rev/day^2
Epoch rev: 36081
Checksum: 301
Satellite: DO-64
Catalog number: 32789
Epoch time: 14360.15615072
Element set: 168
Inclination: 097.6969 deg
RA of node: 057.8428 deg
Eccentricity: 0.0010593
Arg of perigee: 243.8732 deg
Mean anomaly: 172.6192 deg
Mean motion: 14.96686465 rev/day
Decay rate: 1.3026e-04 rev/day^2
Epoch rev: 36117
Checksum: 343
Satellite: CO-66
Catalog number: 32791
Epoch time: 14360.16893473
Element set: 118
Inclination: 097.6759 deg
RA of node: 046.4086 deg
Eccentricity: 0.0012766
Arg of perigee: 271.5079 deg
Mean anomaly: 088.4675 deg
Mean motion: 14.87747178 rev/day
Decay rate: 3.868e-05 rev/day^2
Epoch rev: 36058
Checksum: 371
Satellite: RS-30
Catalog number: 32953
Epoch time: 14360.43236195
Element set: 590
Inclination: 082.5041 deg
RA of node: 081.6811 deg
Eccentricity: 0.0019452
Arg of perigee: 098.4640 deg
Mean anomaly: 261.8646 deg
Mean motion: 12.43054120 rev/day
Decay rate: 1.0e-07 rev/day^2
Epoch rev: 29914
Checksum: 275
Satellite: METEOR-M
Catalog number: 35865
Epoch time: 14360.53702301
Element set: 197
Inclination: 098.5248 deg
RA of node: 041.8624 deg
Eccentricity: 0.0001762
Arg of perigee: 255.8797 deg
Mean anomaly: 104.2208 deg
Mean motion: 14.21973232 rev/day
Decay rate: 2.93e-06 rev/day^2
Epoch rev: 27367
Checksum: 299
Satellite: RS-38
Catalog number: 35869
Epoch time: 14360.53329864
Element set: 105
Inclination: 098.5178 deg
RA of node: 041.5720 deg
Eccentricity: 0.0003710
Arg of perigee: 255.7210 deg
Mean anomaly: 104.3584 deg
Mean motion: 14.22259078 rev/day
Decay rate: 1.96e-06 rev/day^2
Epoch rev: 27371
Checksum: 303
Satellite: JUGNU
Catalog number: 37839
Epoch time: 14359.78863007
Element set: 760
Inclination: 019.9603 deg
RA of node: 173.6292 deg
Eccentricity: 0.0019073
Arg of perigee: 295.8246 deg
Mean anomaly: 178.5328 deg
Mean motion: 14.12397780 rev/day
Decay rate: 4.80e-06 rev/day^2
Epoch rev: 16567
Checksum: 340
Satellite: SRMSAT
Catalog number: 37841
Epoch time: 14359.84199128
Element set: 764
Inclination: 019.9705 deg
RA of node: 196.4871 deg
Eccentricity: 0.0011880
Arg of perigee: 228.8529 deg
Mean anomaly: 252.8824 deg
Mean motion: 14.10423135 rev/day
Decay rate: 4.44e-06 rev/day^2
Epoch rev: 16544
Checksum: 321
Satellite: RAX-2
Catalog number: 37853
Epoch time: 14359.91129227
Element set: 997
Inclination: 101.7039 deg
RA of node: 121.3538 deg
Eccentricity: 0.0206251
Arg of perigee: 221.0516 deg
Mean anomaly: 253.8777 deg
Mean motion: 14.92776033 rev/day
Decay rate: 1.8434e-04 rev/day^2
Epoch rev: 17122
Checksum: 307
Satellite: AUBIESAT
Catalog number: 37854
Epoch time: 14359.23404870
Element set: 995
Inclination: 101.7078 deg
RA of node: 122.9497 deg
Eccentricity: 0.0203375
Arg of perigee: 219.0618 deg
Mean anomaly: 216.6472 deg
Mean motion: 14.94452323 rev/day
Decay rate: 2.3488e-04 rev/day^2
Epoch rev: 17120
Checksum: 313
